Theta_e
309 310 310 310 308 307 304 293 285 300 303 293 289 287 291 297 297 298 297 298 297 296 298 295 295 296 300 307 305 297 298 294 293 296 300 302 299 298 297 294 290 290 291 294
310 309 310 309 308 307 302 293 290 302 298 287 290 295 298 300 297 297 297 296 299 300 297 294 297 300 306 309 306 301 297 290 289 291 293 297 297 298 295 294 293 292 292 295
310 310 310 308 308 307 304 294 289 295 297 293 291 291 295 298 305 301 301 298 299 299 296 298 296 301 306 311 306 317 307 290 295 293 293 297 296 299 299 297 292 292 294 298
309 310 310 309 308 307 304 295 293 293 289 292 291 290 295 298 297 302 304 299 302 301 296 298 299 304 307 312 314 311 301 293 293 299 300 300 300 301 300 298 299 298 299 300
309 309 309 309 308 307 300 294 292 296 293 291 291 292 293 295 297 297 301 299 303 305 299 303 302 304 303 304 306 299 297 293 295 294 299 300 299 301 302 302 299 299 298 301
309 309 309 309 308 304 294 296 296 296 295 290 290 292 294 296 297 300 301 307 304 303 304 308 308 309 308 306 304 301 295 297 291 294 296 298 294 300 300 302 304 304 300 303
309 309 309 309 308 306 301 299 299 295 291 292 292 294 295 296 297 295 301 307 305 307 309 310 307 304 305 307 307 304 298 296 292 295 294 290 299 306 306 307 309 310 308 305
309 309 308 309 308 308 299 300 299 296 291 294 295 295 294 296 296 297 302 307 305 305 302 299 301 301 300 305 309 303 303 295 294 292 292 297 304 308 308 304 304 311 309 310
308 309 307 307 308 308 301 298 302 298 294 292 297 294 294 292 293 294 302 307 306 305 299 299 295 297 300 301 302 307 303 300 298 294 291 291 304 310 315 311 299 312 313 311
308 308 309 308 308 308 300 298 303 299 295 298 297 292 291 295 298 292 299 299 301 307 297 293 294 294 305 300 296 298 300 301 296 295 295 299 308 312 314 301 300 310 312 311
307 307 308 308 307 308 301 298 302 300 297 297 300 300 296 295 296 293 298 295 301 301 298 298 298 298 298 303 304 300 300 299 298 297 293 294 311 311 305 308 310 311 311 312
307 308 307 308 307 308 305 297 303 304 298 296 302 303 304 302 301 297 296 294 300 301 297 300 299 300 301 301 299 309 300 305 303 300 299 307 312 309 312 312 308 311 312 313
307 307 307 307 307 307 306 299 299 300 297 295 296 297 302 303 304 305 295 296 300 302 305 300 302 300 302 298 301 306 309 310 305 306 306 308 312 314 315 314 311 311 313 315
306 307 307 307 307 307 307 300 298 295 296 292 294 304 301 304 302 303 303 299 299 301 302 299 300 299 301 300 302 304 308 311 308 306 312 311 312 314 314 315 316 315 314 314
306 306 306 307 307 308 304 297 298 300 297 292 293 300 302 301 300 302 303 299 298 298 298 297 296 302 304 302 302 302 308 306 303 303 308 309 310 314 314 311 311 310 311 311
307 307 307 307 307 306 296 297 297 302 302 293 288 298 299 298 299 299 298 298 298 299 296 296 297 301 304 297 296 303 307 311 309 310 315 311 313 311 313 310 310 310 309 309
306 306 306 307 307 299 292 293 300 304 301 294 291 292 298 299 299 299 297 298 297 297 295 295 294 296 297 295 292 298 300 309 312 312 307 304 306 306 310 310 310 310 308 307
306 306 307 308 307 303 297 300 305 303 296 294 288 291 293 298 294 295 298 296 295 295 295 295 295 300 299 294 299 301 302 304 304 305 306 307 308 306 305 305 306 305 304 304
306 306 307 300 297 292 298 308 306 299 297 291 292 290 288 296 294 297 297 296 292 296 292 296 300 299 296 300 298 300 302 299 300 303 304 304 304 304 304 304 305 303 303 303
306 299 296 293 298 310 304 297 294 294 295 293 290 294 290 294 294 294 296 296 293 290 292 303 299 298 303 300 301 301 303 303 304 302 301 302 303 303 304 303 304 304 303 304
297 295 295 300 306 295 292 289 290 292 291 292 292 292 290 296 294 294 296 292 293 290 292 299 298 297 298 302 303 304 305 306 305 304 303 303 302 304 304 305 306 305 305 305
300 299 300 298 294 289 286 286 290 291 289 291 292 293 294 297 298 295 296 293 293 289 298 297 295 299 300 302 304 305 305 307 307 308 307 308 309 309 308 306 306 307 307 308
302 296 292 290 288 280 285 284 286 286 290 292 293 292 294 296 296 295 294 292 291 299 295 294 297 301 304 303 304 305 307 308 309 309 310 311 311 311 310 310 311 310 308 310
294 291 284 285 285 288 288 291 292 295 296 294 294 295 294 294 293 294 293 294 297 292 291 291 297 299 301 303 306 305 304 305 306 306 309 310 309 309 311 311 311 310 308 310
290 293 287 291 294 296 298 299 297 297 297 294 295 295 294 292 292 293 292 293 291 293 292 294 298 299 299 299 301 301 302 304 304 304 305 307 309 308 308 309 310 309 308 308
294 294 292 295 293 294 296 297 296 298 297 296 295 292 290 290 290 292 292 292 291 293 295 297 298 299 300 300 302 302 303 304 303 303 304 305 305 306 307 308 309 309 308 309
294 293 297 296 294 292 294 294 295 298 296 293 294 291 290 293 290 291 295 293 296 297 299 300 299 299 300 301 302 305 304 304 304 304 304 305 306 306 305 305 306 307 308 308
Wind_Speed
16 18 19 20 20 24 10 4 5 5 3 2 1 3 8 5 5 3 5 6 6 6 2 6 5 8 9 8 10 12 11 8 12 14 6 3 7 10 10 8 7 1 5 9
15 16 17 17 18 17 7 7 6 6 3 1 3 6 5 4 3 7 5 7 8 5 5 6 8 6 15 18 15 17 10 5 6 9 5 1 5 6 6 3 4 9 8 8
17 15 15 15 16 18 4 3 5 5 4 1 2 4 6 4 6 8 7 8 8 9 8 11 7 12 14 18 11 26 16 6 15 16 9 6 5 6 8 9 5 6 8 7
18 16 13 14 16 19 1 2 4 1 4 3 6 2 4 4 4 4 6 4 13 11 6 7 5 10 19 9 6 10 16 9 8 19 16 6 7 9 7 9 12 11 11 11
17 16 12 13 14 17 1 3 4 6 5 4 5 2 3 4 4 5 8 8 11 11 9 12 6 8 6 7 8 1 4 8 10 8 11 15 12 14 13 17 2 3 6 7
15 15 11 9 11 7 2 2 4 2 4 5 4 2 4 8 12 9 14 8 4 5 8 6 9 13 10 7 6 3 6 11 6 17 6 6 4 11 6 6 5 8 6 11
16 14 13 10 7 2 1 3 3 3 5 3 4 10 14 15 11 10 13 15 6 2 9 8 1 3 9 9 3 3 5 8 3 12 6 6 10 1 7 12 3 2 5 2
18 13 13 12 7 6 2 2 3 3 5 5 12 8 8 14 11 5 7 5 7 12 5 3 1 2 3 2 5 2 5 5 3 8 7 3 4 6 5 7 5 4 5 4
17 13 12 11 10 7 1 4 5 3 4 6 9 7 11 6 5 7 6 6 9 5 3 4 5 8 8 1 8 1 4 4 6 3 9 7 2 10 11 7 4 8 7 4
16 15 14 12 10 7 2 4 4 3 4 8 5 5 4 6 4 4 6 10 9 5 3 2 3 5 5 3 3 6 6 5 4 2 5 2 8 17 8 7 6 10 6 5
15 14 13 12 12 8 2 5 4 4 4 10 14 13 5 4 3 3 5 9 3 4 5 1 2 3 1 5 4 1 3 3 3 3 6 3 14 3 8 1 6 2 5 6
17 15 10 10 8 5 2 3 2 3 5 8 9 15 20 20 18 3 3 5 3 1 2 2 2 5 4 3 4 2 2 3 4 3 5 2 5 5 5 2 4 6 11 7
12 10 8 8 8 7 5 4 3 3 4 7 4 9 8 11 20 15 4 3 2 1 3 2 2 3 3 1 4 6 2 6 5 2 1 3 5 4 5 4 4 5 8 9
8 9 7 9 10 9 6 3 2 1 4 5 8 4 7 7 9 16 14 5 3 2 1 3 2 2 2 4 3 3 2 7 5 2 3 2 6 5 4 7 7 7 9 8
8 7 9 10 8 9 4 4 5 6 3 4 8 15 8 7 5 8 8 5 1 1 1 3 5 3 1 1 1 3 2 7 4 5 4 7 6 4 5 6 7 11 14 13
8 7 8 9 8 5 2 3 0 5 3 3 5 5 6 2 5 5 3 5 3 3 4 4 3 3 5 3 2 4 6 2 4 7 2 11 7 7 6 10 12 13 9 7
7 8 9 9 7 2 3 3 0 5 3 1 5 5 5 4 2 1 1 1 3 3 1 1 2 4 4 3 5 15 8 8 11 8 6 14 11 4 4 9 8 5 7 4
7 9 9 8 8 4 6 5 15 5 2 1 3 7 5 1 1 1 2 2 1 1 0 2 4 5 5 6 12 13 10 12 15 13 10 7 5 5 8 7 7 10 8 6
8 9 10 3 1 2 4 1 10 2 3 2 2 3 4 4 2 1 0 1 3 2 4 4 4 4 8 5 9 12 10 6 4 6 9 9 11 6 8 8 9 7 6 6
8 2 2 2 3 5 2 2 1 1 2 2 4 2 4 2 2 1 1 1 2 3 1 4 5 4 2 5 7 6 8 8 6 8 9 10 8 8 7 7 6 4 5 6
2 2 2 3 9 3 2 1 1 1 3 3 5 4 3 2 2 1 1 2 0 4 2 6 3 3 3 8 7 7 7 7 7 6 4 5 4 4 6 8 7 6 6 5
3 3 4 3 3 3 1 3 3 3 5 3 3 4 4 4 1 1 3 3 1 4 2 6 3 1 3 5 6 6 7 8 9 8 8 8 8 7 6 6 6 6 7 8
1 1 3 3 2 5 0 3 2 3 3 3 2 2 2 4 4 4 4 5 3 3 5 4 2 0 4 6 6 7 8 9 9 9 8 7 6 6 5 7 7 7 7 6
2 3 6 3 5 3 1 2 4 5 3 3 2 2 3 3 4 2 4 2 5 4 4 3 1 2 4 4 4 5 6 6 6 6 6 5 6 6 7 6 5 5 5 6
2 2 4 3 3 3 4 4 4 4 3 1 3 4 3 4 4 3 3 5 5 5 3 2 2 2 0 2 3 3 3 4 4 4 4 5 6 5 6 6 5 4 3 3
1 2 3 5 1 3 3 4 5 3 3 2 4 3 4 5 3 6 6 4 5 1 1 2 2 1 1 2 4 6 5 5 5 4 4 4 4 5 6 6 5 4 1 1
4 3 3 3 3 4 4 2 5 5 4 3 3 5 3 3 5 5 3 3 2 2 0 2 3 1 3 4 5 6 5 5 6 5 4 4 3 4 3 5 4 5 2 1
Wind_Direction
323 331 334 337 339 340 356 5 328 354 138 44 224 203 194 227 205 259 226 221 234 222 202 274 258 232 210 269 216 182 204 174 232 228 228 196 182 204 174 197 248 166 171 263
315 325 331 337 338 351 327 317 273 298 136 189 268 298 285 241 234 246 220 240 232 223 246 287 210 251 272 266 232 205 170 207 205 322 320 100 171 190 173 123 91 189 155 254
316 316 325 334 334 336 325 305 320 311 36 355 33 350 276 265 247 237 218 218 235 255 242 225 261 287 291 296 221 204 164 142 204 222 219 157 191 189 191 159 152 170 212 217
310 317 319 334 333 335 271 209 261 293 312 322 323 257 274 302 287 274 256 257 220 213 187 258 266 290 291 299 297 210 160 189 170 227 214 195 239 244 182 190 198 176 218 198
302 308 324 330 336 339 91 327 352 343 293 289 293 287 245 297 306 262 277 220 226 194 179 200 205 251 221 246 313 247 198 208 167 219 210 196 223 245 237 223 199 137 129 231
311 309 308 322 336 20 3 309 306 269 284 299 320 212 331 305 313 260 237 281 298 212 202 189 194 232 252 243 275 303 165 185 126 231 181 170 236 230 201 197 164 152 148 216
295 301 306 299 315 60 270 309 275 268 275 266 257 307 308 299 306 261 282 300 237 292 343 287 157 167 211 228 83 275 172 204 149 212 103 194 245 268 186 128 104 88 280 200
290 293 296 299 284 293 155 287 265 282 273 280 295 276 306 300 287 268 275 272 265 312 288 78 248 324 245 225 161 1 129 131 126 161 179 162 332 32 47 358 167 206 197 206
280 285 289 291 286 280 258 265 218 250 289 243 259 328 304 289 317 321 270 304 277 282 78 99 203 184 259 164 343 161 81 80 116 136 143 167 311 327 328 305 335 21 23 68
270 273 280 279 281 270 154 265 258 262 268 260 261 221 268 291 270 266 285 333 329 354 25 79 171 231 172 116 8 339 349 1 62 10 107 90 1 312 291 75 240 330 1 18
280 272 270 278 276 270 161 272 235 229 256 283 265 253 240 298 264 278 299 322 319 350 57 19 267 269 159 73 105 149 72 55 15 334 69 358 344 1 78 300 334 162 61 68
272 272 276 276 283 271 177 263 275 305 249 269 305 256 247 237 235 352 291 268 257 250 91 356 324 284 38 109 129 75 71 153 116 227 172 251 324 39 331 350 306 357 68 66
268 266 287 300 292 295 246 266 285 268 275 281 258 252 264 229 224 204 217 278 270 316 184 145 275 286 128 149 264 121 102 107 152 193 245 132 60 16 19 359 26 28 34 47
258 263 267 286 287 282 280 230 187 97 260 279 283 304 294 280 164 185 209 265 313 15 10 76 241 223 158 202 208 91 129 122 171 35 98 140 59 82 13 354 355 35 39 35
265 264 274 278 295 300 277 207 207 206 266 296 288 307 265 262 201 202 179 174 185 60 6 176 227 317 24 24 43 25 300 132 166 220 198 122 114 2 69 54 35 37 55 27
282 278 286 298 289 342 353 293 157 198 193 270 295 298 289 309 175 199 197 160 185 176 203 205 225 211 87 73 86 358 304 308 188 160 173 94 78 61 66 94 74 58 56 42
273 286 288 291 281 124 200 218 43 186 14 275 295 289 263 207 137 332 153 107 202 180 248 322 318 13 109 57 39 316 322 74 79 71 94 57 65 77 61 94 91 101 80 73
290 292 288 280 276 286 286 243 237 189 218 267 275 271 327 162 183 221 166 179 23 315 169 41 32 9 37 48 327 341 13 64 52 57 62 103 129 81 51 55 51 50 38 5
293 294 299 0 99 216 245 319 108 133 167 248 244 268 283 357 280 207 32 141 76 298 67 47 64 25 50 330 314 351 358 32 77 69 68 58 58 44 34 40 27 31 5 359
312 5 1 286 219 320 44 9 43 322 245 230 238 250 265 98 342 13 121 13 122 88 11 89 66 65 67 335 329 335 350 13 18 52 25 17 24 16 1 5 351 337 324 319
19 328 262 278 317 54 41 263 192 200 258 205 240 223 261 286 47 330 54 153 67 85 194 102 91 82 334 335 347 341 358 31 49 79 84 60 45 3 354 343 323 323 330 307
268 288 295 307 11 41 19 250 285 199 238 223 211 246 206 294 44 82 348 103 68 80 41 84 91 25 318 338 338 348 7 23 26 26 18 6 359 348 327 299 301 301 279 288
352 333 316 47 291 25 304 330 299 295 287 263 276 339 357 346 26 54 41 40 45 107 49 64 79 224 349 355 355 4 13 22 25 17 10 2 347 335 327 312 307 308 309 305
2 335 1 46 340 350 304 309 255 265 282 298 84 24 56 330 33 9 54 1 49 72 63 71 298 339 352 3 15 34 11 14 14 2 351 352 345 329 329 336 335 344 333 329
332 344 16 0 329 297 306 284 287 281 282 326 26 31 51 353 47 12 32 60 62 40 71 167 223 237 17 27 357 340 332 331 330 318 326 327 328 333 326 340 337 337 326 338
341 359 14 324 318 274 328 314 314 329 336 32 38 44 42 22 35 44 10 51 49 69 166 211 204 258 328 291 288 290 288 292 295 305 299 310 329 327 311 330 353 15 40 174
22 351 270 261 257 260 276 294 303 316 47 30 22 47 18 310 53 34 20 64 156 180 224 141 195 224 288 292 293 298 316 328 328 317 313 288 294 286 358 340 319 318 330 80